Location: *
(45.1961°N, 1.9694°E)
Time: 23:19:21
(UTC+00:00)

Cosmos 1908 Rocket - Pass Details

Date: 25 August 2019
Orbit: 605 x 633 km, 82.5° (Epoch: 17 September)

Event Time Altitude Azimuth Distance (km) Brightness Sun altitude
Exits shadow 20:18:14 - 182° (S) 2,087 6.0 -16.0°
Reaches altitude 10° 20:18:25 10° 182° (S) 2,010 5.9 -16.1°
Maximum altitude 20:22:53 77° 97° (E) 652 3.5 -16.7°
Drops below altitude 10° 20:27:21 10° 12° (NNE) 2,017 6.5 -17.3°
Sets 20:29:35 0° 11° (N) 2,925 7.4 -17.7°
